This demonstration page uses our WeatherBlox Daily Observations layout. Learn more.

Hourly Observations for August 7, 2016

Temp ( °F °C ) Dew Point ( °F °C ) Humidity (%) Winds ( mph kmh ) Pressure ( in mb ) Visibility ( mi km ) Precip ( " mm )
12:54 am 00:54 Cloudy 72 22.2 61 16.1 68 68 E 7 11 30.04 1017 10 16.0934 0 0
1:54 am 01:54 Clear 69 20.6 62 16.7 78 78 ENE 6 9 30.02 1017 10 16.0934 0 0
2:54 am 02:54 Mostly Clear 69 20.6 62 16.7 78 78 E 5 7 30.01 1016 10 16.0934 0 0
3:54 am 03:54 Clear 67 19.4 62 16.7 84 84 ENE 6 9 30.01 1016 10 16.0934 0 0
4:54 am 04:54 Cloudy 68 20 62 16.7 81 81 NE 3 6 30.03 1017 10 16.0934 0 0
5:54 am 05:54 Cloudy 67 19.4 63 17.2 87 87 NNE 5 7 30.03 1017 10 16.0934 0 0
6:54 am 06:54 Cloudy 68 20 62 16.7 81 81 Calm 30.04 1017 10 16.0934 0 0
7:54 am 07:54 Cloudy with Light Rain 68 20 63 17.2 84 84 SE 7 11 30.06 1018 10 16.0934 0 0.0254
8:54 am 08:54 Cloudy with Light Rain 68 20 63 17.2 84 84 SE 6 9 30.06 1018 10 16.0934 0.01 0.254
9:54 am 09:54 Cloudy 68 20 64 17.8 87 87 SE 8 13 30.07 1018 10 16.0934 0.01 0.254
10:26 am 10:26 Cloudy with Light Rain 68 20 64 17.8 87 87 S 8 13 30.06 1018 10 16.0934 0 0.0254
10:38 am 10:38 Cloudy with Light Rain 68 20 64 18 88 88 SSE 8 13 30.06 1018 10 16.0934 0 0
10:54 am 10:54 Cloudy 68 20 63 17.2 84 84 SSE 7 11 30.07 1018 10 16.0934 0 0.0254
11:54 am 11:54 Cloudy 69 20.6 62 16.7 78 78 SSE 3 6 30.05 1018 10 16.0934 0 0.0254
12:54 pm 12:54 Mostly Cloudy 72 22.2 61 16.1 68 68 SE 7 11 30.04 1017 10 16.0934 0 0
1:54 pm 13:54 Mostly Cloudy 76 24.4 62 16.7 62 62 ESE 9 15 30.04 1017 10 16.0934 0 0
2:54 pm 14:54 Mostly Cloudy 78 25.6 63 17.2 60 60 SE 9 15 30.02 1017 10 16.0934 0 0
3:54 pm 15:54 Partly Cloudy 77 25 62 16.7 60 60 E 10 17 30.02 1017 10 16.0934 0 0
4:54 pm 16:54 Mostly Cloudy 76 24.4 60 15.6 58 58 E 10 17 30.02 1017 10 16.0934 0 0
5:54 pm 17:54 Sunny 78 25.6 60 15.6 54 54 E 12 19 30.01 1016 10 16.0934 0 0
6:54 pm 18:54 Sunny 77 25 61 16.1 58 58 ESE 9 15 29.99 1016 10 16.0934 0 0
7:54 pm 19:54 Sunny 75 23.9 61 16.1 62 62 ESE 9 15 29.99 1016 10 16.0934 0 0
8:54 pm 20:54 Clear 72 22.2 62 16.7 71 71 ESE 6 9 30 1016 10 16.0934 0 0
9:54 pm 21:54 Clear 71 21.7 63 17.2 76 76 ESE 7 11 30.01 1016 10 16.0934 0 0
10:54 pm 22:54 Clear 71 21.7 63 17.2 76 76 E 6 9 30.01 1016 10 16.0934 0 0
11:54 pm 23:54 Clear 69 20.6 64 17.8 84 84 ESE 6 9 29.99 1016 10 16.0934 0 0

Powered by AerisWeather